944  
ASUS45 KBOI 232010  
RWRID  
 
IDAHO REGIONAL WEATHER ROUNDUP  
NATIONAL WEATHER SERVICE BOISE ID  
200 PM MDT SUN JUL 23 2017  
 
NOTE: "FAIR" INDICATES FEW OR NO CLOUDS BELOW 12000 FEET  
WITH NO SIGNIFICANT WEATHER AND/OR S TO VISIBILITY
 
 
IDZ012-014-232100-  
SOUTHWEST IDAHO  
 
 
CITY SKY/WX TMP DP RH WIND PRES REMARKS
 
BOISE SUNNY 92 46 20 VRB6 29.97F  
CALDWELL SUNNY 90 48 23 CALM 29.96F  
MOUNTAIN HOME SUNNY 94 44 17 CALM 29.97F HX 90  

 
 
IDZ016-017-232100-  
SOUTHCENTRAL IDAHO  
 
 
CITY SKY/WX TMP DP RH WIND PRES REMARKS
 
BURLEY SUNNY 88 35 15 VRB3 30.05F  
JEROME SUNNY 87 41 19 SW5 30.06F  
TWIN FALLS SUNNY 89 43 20 NW7 30.06F  

 
 
IDZ019>023-232100-  
SOUTHEAST IDAHO  
 
 
CITY SKY/WX TMP DP RH WIND PRES REMARKS
 
IDAHO FALLS MOSUNNY 86 48 26 NW5 30.10F  
POCATELLO MOSUNNY 90 44 20 NW8 30.09F  
REXBURG SUNNY 85 47 26 VRB3 30.12F  

 
 
IDZ006-010-011-018-031-032-232100-  
CENTRAL IDAHO MOUNTAINS  
 
 
CITY SKY/WX TMP DP RH WIND PRES REMARKS
 
MCCALL SUNNY 84 38 19 VRB3 30.10F  
HAILEY SUNNY 84 46 26 SE7 30.14F  
STANLEY N/A 84 27 12 NW8G17 30.21F  
SALMON NOT AVBL  
CHALLIS SUNNY 89 29 11 E7 30.06F  

 
 
IDZ002-004-006-007-026-232100-  
NORTHERN IDAHO  
 
 
CITY SKY/WX TMP DP RH WIND PRES REMARKS
 
LEWISTON SUNNY 94 46 19 NW6 29.90F HX 90  
LOWELL N/A 94 52 24 VRB3 29.88F HX 91  
COEUR D'ALENE SUNNY 89 55 31 VRB7 29.94F  
MULLAN PASS SUNNY 74 45 35 VRB3 30.18S  

 
 
 
CLICK HERE TO GO TO PREVIOUS BULLETINS.

The Nexlab ID Page Main Text Page